Location: Praha
(50.0830°N, 14.4670°E)
Time: 22:46:11
(UTC+01:00)

ISS - Pass Details

Date: 11 November 2019
Orbit: 412 x 421 km, 51.6° (Epoch: 15 November)

Event Time Altitude Azimuth Distance (km) Brightness Sun altitude
Exits shadow 04:14:34 15° 126° (SE) 1,237 -0.9 -27.8°
Drops below altitude 10° 04:15:14 10° 124° (SE) 1,501 -0.4 -27.7°
Sets 04:17:20 0° 120° (ESE) 2,362 0.8 -27.4°
